Regional Weather Roundup
Issued by NWS

Home | Current Version | Previous Version | Text Only | Print | Product List | Glossary Off
Versions: 1 2 3 4 5 6 7 8 9 10 11 12 13 14 15 16 17 18 19 20 21 22 23 24 25 26 27 28 29 30 31 32 33 34 35 36 37 38 39 40 41 42 43 44 45 46 47 48 49 50

000
ASUS45 KSLC 200610
RWRUT

UTAH REGIONAL WEATHER ROUNDUP
NATIONAL WEATHER SERVICE SALT LAKE CITY UT
1100 PM MST THU JAN 19 2017

UTZ001>011-023>025-200700-

NORTHERN UTAH

CITY           SKY/WX    TMP DP  RH WIND       PRES   REMARKS
BRIGHAM CITY     N/A     30  28  93 CALM      29.71S
HILL AFB       FOG       30  30  99 CALM      29.68F VSB 1/4
LOGAN          CLOUDY    27  27 100 NW3       29.69F FOG
OGDEN          FOG       29  28  96 CALM      29.68F VSB 1
SALT LAKE CITY FOG       31  30  96 CALM      29.69F VSB 1/8
TOOELE VALLEY  FOG       30  30 100 SE3       29.71F VSB 1/4
WENDOVER       CLOUDY    25  23  93 CALM      29.70F VSB 3/4
HEBER CITY     LGT SNOW  30  30 100 CALM      29.64F
WEST JORDAN    CLOUDY    31  31 100 N5        29.69F VSB 1/2 WCI  26

$$

UTZ011>015-024>027-200700-

CENTRAL/NORTHEAST UTAH

CITY           SKY/WX    TMP DP  RH WIND       PRES   REMARKS
PROVO AIRPORT  FOG       32  31  96 CALM      29.69F VSB 3/4
MOAB/CANYONLAN CLOUDY    31  31 100 NW7       29.67F WCI  24
DELTA          CLOUDY    32  32 100 NW5       29.68S WCI  27
PRICE          FOG       24  24 100 S5        29.65S VSB 1/4 WCI  18
RICHFIELD      CLOUDY    34  34 100 CALM      29.68S FOG
ROOSEVELT      LGT SNOW  19  16  86 CALM      29.75F
VERNAL         LGT SNOW  17  14  88 SE3       29.71F VSB 3/4

$$

UTZ013>016-019>022-027-200700-

SOUTHERN UTAH

CITY           SKY/WX    TMP DP  RH WIND       PRES   REMARKS
BRYCE CANYON   LGT SNOW  26  23  88 S5        29.67S FOG     WCI  20
CEDAR CITY     CLOUDY    30  27  88 S9        29.69R WCI  22
MILFORD        LGT SNOW  33  32  96 N10       29.69S FOG     WCI  25
ST GEORGE      MOCLDY    39  34  81 E6        29.79S WCI  35
HANKSVILLE     CLOUDY    32  32 100 MISG      29.70F
KANAB          CLOUDY    34  34 100 SW1       29.78S FOG
BLANDING       CLOUDY    31  31 100 S3        29.76F VSB 1/4

$$

REGIONAL REPORTS     COLORADO/ARIZONA

CITY           SKY/WX    TMP DP  RH WIND       PRES   REMARKS
CRAIG, CO      LGT SNOW  28  25  88 CALM      29.65F FOG
GRAND JUNCTION CLOUDY    31  31 100 CALM      29.67F FOG
RIFLE, CO      LGT SNOW  31  31 100 CALM      29.67F FOG
MONTROSE, CO   CLOUDY    30  30 100 CALM      29.69F
CORTEZ, CO     LGT SNOW  32  32 100 CALM      29.71F FOG
COLORADO CITY  MOCLDY    34  34 100 CALM      29.77S
PAGE, AZ       MOCLDY    38  33  82 S5        29.71F WCI  34
GRAND CANYON   LGT SNOW  28  28 100 SW10      29.78F FOG     WCI  19
KINGMAN, AZ    MOCLDY    43  39  86 SW15      29.80S
FLAGSTAFF, AZ  LGT SNOW  28  26  92 SW14      29.77S FOG     WCI  17

$$

REGIONAL REPORTS    NEVADA/IDAHO/WYOMING

CITY           SKY/WX    TMP DP  RH WIND       PRES   REMARKS
LAS VEGAS, NV  PTCLDY    50  32  50 S8        29.74F
ELY, NY        FOG       15  15 100 S10       29.70R VSB 3/4 WCI   2
ELKO, NV       MOCLDY    21  17  84 NE6       29.66F WCI  13
POCATELLO, ID  CLOUDY    32  27  81 S8        29.67S WCI  25
BURLEY, ID     MOCLDY    33  31  92 S3        29.64F
FORT BRIDGER,  CLOUDY    28  28 100 SW10      29.66F WCI  18
EVANSTON, WY   LGT SNOW  26  23  88 S3        29.63F FOG
ROCK SPRINGS,  CLOUDY    21  19  92 W8        29.61F WCI  11
KEMMERER, WY     N/A     25  23  93 NW5       29.62  WCI  19

$$



USA.gov is the U.S. government's official web portal to all federal, state and local government web resources and services.